カタログに戻る

STARLINK-11100

運用中通信VLEO
NORAD 59713·PAYLOAD·🇺🇸 United States

打ち上げ May 10, 2024 から Vandenberg Space Force Base

Loading…

次のパス (今後24時間)

TLE

最新Source: CelesTrak SupGP

元期: Sep 14, 2026, 22:06 UTC

1 59713C 24088F   26257.92131944 -.00035246  00000+0 -29035-3 0  2572
2 59713  53.1571 113.5068 0001134  71.9396 234.4494 15.69726135    13

AllMySatでSTARLINK-11100をリアルタイム追跡

Download on the App Store